Regional Weather Roundup
Issued by NWS

Home | Current Version | Previous Version | Graphics & Text | Print | Product List | Glossary Off
Versions: 1 2 3 4 5 6 7 8 9 10 11 12 13 14 15 16 17 18 19 20 21 22 23 24 25 26 27 28 29 30 31 32 33 34 35 36 37 38 39 40 41 42 43 44 45 46 47 48 49 50

000
ASUS43 KMKX 240111
RWRWI

WISCONSIN REGIONAL WEATHER ROUNDUP
NATIONAL WEATHER SERVICE MILWAUKEE/SULLIVAN WI
700 PM CST SUN NOV 23 2014

NOTE: "FAIR" INDICATES FEW OR NO CLOUDS BELOW 12,000 FEET WITH NO
SIGNIFICANT WEATHER AND/OR OBSTRUCTIONS TO VISIBILITY.

WIZ001-002-006>008-014>016-023>028-240200-
NORTHWEST WISCONSIN

CITY           SKY/WX    TMP DP  RH WIND       PRES   REMARKS
SUPERIOR ARPT  DRIZZLE   37  37 100 CALM      29.37S
ASHLAND        FOG       38  37  97 N3        29.36F VSB 1/4
HAYWARD        LGT RAIN  38  37  97 CALM      29.34F VSB 1/2
SIREN          LGT RAIN  37  36  97 NW5       29.36F WCI  33
CUMBERLAND     DRIZZLE   36  36 100 N7        29.33F WCI  30
RICE LAKE      DRZL/FOG  39  39  98 CALM      29.35F VSB 1
CHETEK         FOG       39  39 100 NW3       29.32F VSB 1/2
LADYSMITH      FOG       41  40  97 E3        29.33F VSB 1/4
EAU CLAIRE     CLOUDY    47  45  93 CALM      29.30F FOG
MENOMONIE      CLOUDY    43  43  99 W8        29.32F FOG
NEW RICHMOND   CLOUDY    37  37 100 NW7       29.36F FOG     WCI  31
OSCEOLA        CLOUDY    37  37 100 W7        29.39F WCI  31
$$

WIZ003>005-009-010-017-018-240200-
NORTH CENTRAL WISCONSIN

CITY           SKY/WX    TMP DP  RH WIND       PRES   REMARKS
MANITOWISH WTR FOG       41  41 100 CALM      29.33F VSB 1/4
ARBOR VITAE    DRZL/FOG  43  42  97 CALM      29.34F VSB 1/2
WOODRUFF       DRZL/FOG  43  42  97 CALM      29.34F VSB 1/2
RHINELANDER    LGT RAIN  39  39 100 E3        29.35F VSB 1/4
EAGLE RIVER    LGT RAIN  41  41 100 CALM      29.34F VSB 1/2
LAND O LAKES   RAIN      44  44 100 SE3       29.35F
PHILLIPS       FOG       40  40 100 CALM      29.32F VSB 1/4
TOMAHAWK       DRZL/FOG  42  41  97 CALM      29.34F VSB 3/4
MEDFORD        LGT RAIN  43  43 100 SE3       29.32F VSB 1/2
MERRILL        LGT RAIN  43  43 100 CALM      29.33F VSB 1/4
$$

WIZ029-030-035-036-043>047-240200-
CENTRAL WISCONSIN

CITY           SKY/WX    TMP DP  RH WIND       PRES   REMARKS
WAUSAU         FOG       44  44 100 E5        29.32F VSB 1/4
MOSINEE        FOG       45  45 100 CALM      29.33F VSB 1/4
MARSHFIELD     LGT RAIN  46  45  96 SE5       29.32F VSB 1/4
STEVENS POINT  FOG       43  43 100 CALM      29.34F VSB 1
WAUPACA        DRZL/FOG  46  46  97 CALM      29.35F VSB 1/4
WAUTOMA        CLOUDY    46  46 100 SE3       29.33F FOG
WISC RAPIDS    CLOUDY    46  44  93 E3        29.34F
CAMP DOUGLAS   CLOUDY    46  46 100 E3        29.30F FOG
$$

WIZ011>013-019>022-031-037>040-048>050-240200-
NORTHEAST WISCONSIN

CITY           SKY/WX    TMP DP  RH WIND       PRES   REMARKS
ANTIGO         FOG       40  40 100 E9        29.35F VSB 1/4 WCI  34
SHAWANO        DRZL/FOG  41  40  95 CALM      29.37F VSB<1/4
OCONTO         CLOUDY    43  43 100 SE7       29.37F
STURGEON BAY   CLOUDY    45  43  93 S12       29.40F
GREEN BAY      LGT RAIN  45  44  97 SE9       29.37F FOG
MANITOWOC      LGT RAIN  45  45 100 S9        29.39F FOG
APPLETON       LGT RAIN  45  45 100 SE6       29.36F VSB 1/4
CLINTONVILLE   DRZL/FOG  43  43 100 CALM      29.36F VSB 1/4
OSHKOSH        FOG       46  45  96 E6        29.34F VSB 1/2
$$

WIZ032>034-041-042-053>061-240200-
SOUTHWEST WISCONSIN

CITY           SKY/WX    TMP DP  RH WIND       PRES   REMARKS
LA CROSSE      FOG       47  45  93 CALM      29.30F VSB 1/2
SPARTA         FOG       46  46  99 CALM      29.31F VSB 1/2
VIROQUA        CLOUDY    46  46 100 E3        29.29F
BOSCOBEL       CLOUDY    48  46  93 CALM      29.29F FOG
PRAIRIE DU CHI CLOUDY    46  45  95 CALM      29.28F FOG
PLATTEVILLE    CLOUDY    47  46  97 E9        29.28F VSB 1
$$

WIZ056-057-062-063-064-067-068-240200-
SOUTH CENTRAL WISCONSIN

CITY           SKY/WX    TMP DP  RH WIND       PRES   REMARKS
REEDSBURG      DRIZZLE   47  46  99 CALM      29.30F
BARABOO/DELLS  DRIZZLE   46  45  94 SE6       29.31F
LONE ROCK      CLOUDY    51  46  83 SE5       29.29F HAZE
MINERAL POINT  LGT RAIN  48  46  93 SE7       29.30F
MADISON        LGT RAIN  48  46  93 SE6       29.32F FOG
MIDDLETON      CLOUDY    48  48 100 E5        29.31F
WATERTOWN      DRIZZLE   47  47 100 E8        29.32F
MONROE         LGT RAIN  46  46 100 SE7       29.29F VSB 3/4
JANESVILLE     LGT RAIN  48  46  93 SE6       29.31F FOG
$$

WIZ051-052-058>065-066-070>072-240200-
SOUTHEAST WISCONSIN

CITY           SKY/WX    TMP DP  RH WIND       PRES   REMARKS
MILWAUKEE      LGT RAIN  47  45  93 SE10      29.35F VSB 1
WAUKESHA       LGT RAIN  45  45 100 SE7       29.36F FOG
MILWAUKEE/TIMM RAIN      46  45  93 SE5       29.38F
RACINE         LGT RAIN  47  45  93 SE9       29.36F FOG
BURLINGTON     LGT RAIN  45  45 100 E5        29.32F
KENOSHA        RAIN      48  47  96 SE8       29.34F FOG
FOND DU LAC    LGT RAIN  47  44  90 SE9       29.34F FOG
SHEBOYGAN      LGT RAIN  45  44  97 SE5       29.38F FOG
WEST BEND      RAIN      45  43  93 SE3       29.36F
JUNEAU         DRZL/FOG  46  46  99 E7        29.35F VSB 1/2
$$

LSZ147-162-240200-
LAKE SUPERIOR

STATION/POSITION TIME  TEMP    WIND        PRES    WAVE
                       AIR SEA DIR/SP/G            HT/PER
                 (UTC) (F)     (DEG/KT/KT) (MB)    (FT/S)
DEVILS ISLAND    0100   39     300/  5/  5  994.7F
PORT WING        0040   35     200/  2/  2  994.9F
SAXON HARBOR     0000   40        CALM      994.6S
$$

LMZ867-665-643>646-240200-
LAKE MICHIGAN

STATION/POSITION TIME  TEMP    WIND        PRES    WAVE
                       AIR SEA DIR/SP/G            HT/PER
                 (UTC) (F)     (DEG/KT/KT) (MB)    (FT/S)
CHAMBERS ISLAND  0000   44     150/  6/ 11  996.6F
N MID LAKE BUOY  0050   45 42  160/ 14/ 16  997.0F   4/ 7
NORTHPORT PIER   0000   44     150/ 11/ 16  997.3F
SISTER BAY       0013          180/ 15/ 21   N/A
ALGOMA LAKESHORE 2343          170/  8/ 10   N/A
KEWAUNEE LAKESHO 0000   40     170/  6/  7  996.1F
SHEBOYGAN LAKESH 0100   44 39  190/  7/  9  995.3F
PORT WASHINGTON  0000   44     220/  3/  4  997.0F
ATWATER BUOY     0000   47      CALM  /  4  998.2F
MILWAUKEE LAKESH 0000   43     160/  5/  6   N/A
S MID LAKE BUOY  0050   46 42  110/ 12/ 14  994.6F   2/ 3
KENOSHA   LAKESH 0100   45     130/ 13/ 15  993.9F
$$

TC  - TEMPERATURE IN CELSIUS
VSB - VISIBILITY IN STATUTE MILES
WCI - WIND CHILL INDEX
HX  - HEAT INDEX



USA.gov is the U.S. government's official web portal to all federal, state and local government web resources and services.